[[{"header":{"parameterUnit":"m.s-1","parameterCategory":1,"la1":30.2991,"la2":30.254,"lo1":-89.0895,"lo2":-89.0444,"dy":0.0017,"dx":0.0017,"nx":28,"ny":28,"refTime":"2023-08-19T09:00:00:Z","depth":0,"parameterNumber":2,"parameterNumberName":"U-component_of_WINDS"},"data":[0,0,0,0,0,0,0,0,0,0,0,0,0,0,0,0,0,0,0,0,0,0,0,0,0,0,0,0,0,0,0,0,0,0,0,0,0,0,0,0,0,0,0,0,0,0,0,0,0,0,0,0,0,0,0,0,0,0,1.7442,1.7444,0,1.7591,1.7593,1.7595,1.7572,1.7569,1.7567,1.7564,1.7722,1.7729,1.7735,0,0,0,0,0,0,0,0,0,0,0,0,0,1.7143,1.7148,1.7442,1.7444,1.7446,1.7591,1.7593,1.7595,1.7572,1.7569,1.7566,1.7563,1.772,1.7728,1.7736,0,0,0,0,0,0,0,0,0,0,0,0,0,1.728,1.715,1.7442,1.7452,1.7454,1.7591,1.7593,1.7596,1.7573,1.7569,1.7565,1.7562,1.7718,1.7727,1.7737,1.7875,0,0,1.7767,1.7772,0,0,0,0,0,0,0,0,1.7273,1.7291,1.7448,1.7451,1.7454,1.7559,1.7546,1.769,1.7574,1.7528,1.7564,1.756,1.7671,1.7685,1.7721,1.7882,1.7889,1.7768,1.7774,1.7778,1.7781,0,0,0,0,0,0,0,1.7263,1.7285,1.7501,1.7451,1.7454,1.745,1.7466,1.7573,1.762,1.7532,1.753,1.7548,1.7672,1.7712,1.7725,1.7891,1.7768,1.7777,1.7783,1.7787,1.8173,1.8177,0,0,0,0,0,0,1.725,1.7277,1.7497,1.7506,1.7352,1.7459,1.7476,1.7529,1.7618,1.7628,1.7551,1.7546,1.7697,1.7714,1.7731,1.7897,1.7778,1.7788,1.7793,1.8169,1.8174,1.8179,0,0,0,0,0,0,1.7244,1.727,1.7491,1.7391,1.7419,1.7468,1.7528,1.7534,1.7574,1.7633,1.7642,1.7583,1.7695,1.7717,1.7839,1.7903,1.7792,1.7801,1.8164,1.8171,1.8177,1.8233,0,0,0,0,0,0,1.7235,1.7268,1.7319,1.7392,1.7424,1.7595,1.7532,1.754,1.759,1.7585,1.7665,1.7674,1.7693,1.7824,1.7849,1.7914,1.7809,1.8158,1.8167,1.8175,1.8225,1.824,1.8253,0,0,0,0,0,1.7225,1.733,1.7322,1.7349,1.749,1.7599,1.7617,1.7635,1.7595,1.7648,1.7687,1.7672,1.7892,1.7837,1.7864,1.7934,1.8154,1.8165,1.8174,1.8219,1.8237,1.8253,0,0,0,0,0,0,1.7265,1.734,1.7332,1.7464,1.7525,1.7594,1.7662,1.7654,1.7729,1.7721,1.7742,1.776,1.7884,1.7922,1.7859,1.8072,1.8018,1.8034,1.8043,1.8061,1.8074,1.8062,1.7817,0,0,0,0,0,1.7289,1.737,1.7432,1.7542,1.7573,1.7612,1.7661,1.7669,1.7734,1.776,1.7807,1.7872,1.7956,1.801,1.8091,1.8231,1.8248,1.8293,1.8306,1.8317,1.8331,1.8408,1.8428,1.8211,1.8211,1.8211,0,0,1.734,1.7391,1.7441,1.7552,1.76,1.7684,1.7634,1.7726,1.7789,1.7775,1.7892,1.7929,1.8003,1.8135,1.8195,1.817,1.8395,1.833,1.8338,1.8346,1.842,1.844,1.8459,1.8218,1.8216,1.8215,0,0,1.7476,1.7522,1.7619,1.7668,1.7741,1.7767,1.779,1.7861,1.7885,1.8003,1.7994,1.807,1.8214,1.8267,1.8313,1.8469,1.8459,1.8495,1.8567,1.8642,1.866,1.8675,1.873,1.875,1.8508,1.8509,1.8509,0,1.753,1.7655,1.7671,1.7763,1.7812,1.7802,1.7901,1.7948,1.8045,1.808,1.805,1.823,1.8279,1.8423,1.8461,1.8499,1.8527,1.8486,1.8655,1.8671,1.8685,1.8739,1.876,1.8512,1.8512,1.8512,1.8511,0,1.7718,1.7805,1.7875,1.7966,1.8024,1.812,1.8151,1.8208,1.8212,1.8241,1.8362,1.8421,1.8512,1.8548,1.8553,1.8693,1.8675,1.865,1.8596,1.871,1.876,1.8781,1.8518,1.8517,1.8515,1.8514,0,0,1.7883,1.7981,1.8006,1.8048,1.8128,1.8196,1.8292,1.838,1.8428,1.8496,1.8577,1.8699,1.8677,1.8729,1.8741,1.8807,1.8927,1.8774,1.8776,1.88,1.9084,1.9102,1.9125,1.892,1.8924,1.8928,1.9078,0,1.8025,1.8192,1.8209,1.8359,1.8439,1.8431,1.8515,1.8574,1.8604,1.8679,1.8713,1.8799,1.8763,1.8794,1.8859,1.8898,1.8984,1.8888,1.8997,1.9001,1.8978,1.9152,1.9171,1.931,1.9098,1.9101,1.9104,0,1.8214,1.8284,1.8441,1.851,1.8545,1.8619,1.8701,1.8772,1.884,1.8858,1.8916,1.8919,1.9019,1.8962,1.9101,1.9035,1.9082,1.9108,1.9114,1.9124,1.9059,1.9166,1.9354,1.9375,1.9135,1.9133,1.913,0,1.8317,1.8452,1.8563,1.8599,1.8682,1.8734,1.8772,1.8836,1.8888,1.8961,1.8995,1.9079,1.9126,1.9192,1.9219,1.9174,1.9357,1.9301,1.9375,1.9375,1.9413,1.941,1.9611,1.9444,1.9444,1.9444,1.9443,0,1.8474,1.857,1.861,1.8679,1.8787,1.8807,1.8914,1.895,1.9007,1.9083,1.9082,1.9154,1.9185,1.9263,1.9285,1.9397,1.9419,1.9437,1.9441,1.9436,1.9434,1.9466,1.9457,1.9449,1.9448,1.9447,1.9446,0,1.8607,1.8638,1.8758,1.8827,1.8846,1.8923,1.8983,1.905,1.9079,1.9176,1.92,1.9247,1.9339,1.9372,1.9484,1.9499,1.9629,1.9626,1.9605,1.9606,1.9678,1.967,1.9906,1.9938,1.9751,1.9752,1.9754,0,1.8704,1.8778,1.8854,1.8904,1.8943,1.9024,1.9077,1.91,1.9155,1.9238,1.9296,1.9386,1.946,1.9607,1.9652,1.9738,1.9737,1.9814,1.975,1.9743,1.9738,1.9733,1.9741,1.9825,1.9827,1.9829,1.983,0,1.8874,1.8886,1.896,1.9041,1.9103,1.9168,1.9232,1.9273,1.9307,1.9369,1.9461,1.9518,1.9632,1.9722,1.9811,1.9851,1.9847,1.985,1.9871,1.9867,1.9851,1.986,1.9637,1.9844,1.9843,1.9842,1.9841,1.984,1.8993,1.9057,1.9121,1.9204,1.9254,1.9313,1.9379,1.9416,1.9493,1.9586,1.9596,1.9696,1.9763,1.988,1.9925,2.0005,1.9985,2.0016,2.0024,2.0031,2.0036,1.9839,2.0022,2.0021,2.0021,2.0021,2.002,0,1.9162,1.9202,1.9279,1.9366,1.9432,1.942,1.949,1.9547,1.9634,1.9696,1.9768,1.9875,1.9962,2.0015,2.0103,2.0157,2.0158,2.018,2.0176,2.0186,2.0049,2.0022,2.0178,2.0178,2.0178,2.0178,2.0178,2.0178,1.9257,1.9366,1.9386,1.952,1.956,1.9656,1.9697,1.9752,1.9802,1.992,1.9992,2.0025,2.0084,2.0177,2.0258,2.0271,2.0304,2.0328,2.034,2.0211,2.0195,2.0179,2.0153,2.0335,2.0335,2.0469,2.047,2.0471]},{"header":{"parameterUnit":"m.s-1","parameterCategory":1,"la1":30.2991,"la2":30.254,"lo1":-89.0895,"lo2":-89.0444,"dy":0.0017,"dx":0.0017,"nx":28,"ny":28,"refTime":"2023-08-19T09:00:00:Z","depth":0,"parameterNumber":3,"parameterNumberName":"V-component_of_WINDS"},"data":[0,0,0,0,0,0,0,0,0,0,0,0,0,0,0,0,0,0,0,0,0,0,0,0,0,0,0,0,0,0,0,0,0,0,0,0,0,0,0,0,0,0,0,0,0,0,0,0,0,0,0,0,0,0,0,0,0,0,2.545,2.545,0,2.5416,2.5415,2.5415,2.5329,2.5327,2.5325,2.5324,2.529,2.5291,2.5292,0,0,0,0,0,0,0,0,0,0,0,0,0,2.5444,2.5445,2.545,2.545,2.5449,2.5416,2.5415,2.5415,2.5329,2.5327,2.5325,2.5323,2.529,2.5291,2.5292,0,0,0,0,0,0,0,0,0,0,0,0,0,2.5432,2.5445,2.545,2.5403,2.5398,2.5416,2.5415,2.5415,2.533,2.5327,2.5324,2.5322,2.529,2.5291,2.5292,2.5354,0,0,2.5296,2.5296,0,0,0,0,0,0,0,0,2.5433,2.5433,2.541,2.5406,2.5401,2.5374,2.5401,2.5394,2.533,2.5356,2.5324,2.532,2.532,2.5319,2.5318,2.5352,2.5351,2.5296,2.5296,2.5297,2.5297,0,0,0,0,0,0,0,2.5434,2.5434,2.5437,2.541,2.5404,2.5384,2.5379,2.5399,2.5354,2.5353,2.5347,2.5344,2.5317,2.5317,2.5317,2.535,2.5296,2.5297,2.5298,2.5298,2.5434,2.5437,0,0,0,0,0,0,2.5441,2.5435,2.5438,2.5436,2.541,2.5386,2.5381,2.5385,2.5353,2.5346,2.5346,2.534,2.5317,2.5316,2.5316,2.5386,2.5297,2.5298,2.5299,2.5431,2.5435,2.5438,0,0,0,0,0,0,2.5442,2.5443,2.5439,2.5433,2.5431,2.5389,2.5395,2.5386,2.5386,2.5348,2.534,2.5355,2.5315,2.5314,2.5345,2.5383,2.5299,2.53,2.5428,2.5432,2.5436,2.5527,0,0,0,0,0,0,2.5442,2.5443,2.5465,2.5435,2.5432,2.5469,2.5397,2.5387,2.5388,2.538,2.5354,2.5347,2.5312,2.5344,2.5346,2.5383,2.5301,2.5424,2.543,2.5435,2.552,2.5534,2.5545,0,0,0,0,0,2.5442,2.5493,2.5467,2.5468,2.5459,2.5471,2.547,2.5428,2.5392,2.5414,2.539,2.5348,2.5379,2.5348,2.535,2.5388,2.5422,2.5428,2.5435,2.5515,2.5531,2.5545,0,0,0,0,0,0,2.5529,2.5488,2.5459,2.5501,2.549,2.5456,2.5483,2.5447,2.5447,2.5439,2.5389,2.5384,2.5422,2.5408,2.5374,2.5447,2.5394,2.5401,2.5454,2.5469,2.5481,2.5483,2.5302,0,0,0,0,0,2.5554,2.5566,2.5529,2.557,2.5566,2.5526,2.553,2.5499,2.5486,2.5481,2.5459,2.5449,2.5456,2.5462,2.5467,2.5519,2.5512,2.5546,2.5559,2.5569,2.5576,2.5602,2.5617,2.5459,2.5459,2.5459,0,0,2.5604,2.5582,2.5593,2.5587,2.5575,2.559,2.5523,2.5541,2.5551,2.5484,2.5511,2.5496,2.5481,2.5523,2.554,2.5512,2.5618,2.5578,2.5586,2.5587,2.561,2.5625,2.5639,2.5464,2.5463,2.5462,0,0,2.5702,2.5687,2.5719,2.5709,2.5692,2.5665,2.5673,2.5645,2.5632,2.5659,2.5609,2.5621,2.5635,2.5627,2.5624,2.5721,2.5682,2.5725,2.579,2.5816,2.5829,2.5839,2.5874,2.5887,2.5731,2.5732,2.5732,0,2.5766,2.5785,2.5741,2.5762,2.5761,2.5701,2.5734,2.5726,2.5712,2.5713,2.5682,2.5699,2.5685,2.5724,2.5748,2.5748,2.5756,2.5726,2.583,2.5841,2.585,2.5882,2.5895,2.5737,2.5736,2.5736,2.5735,0,2.5865,2.588,2.5908,2.5895,2.5897,2.5925,2.5885,2.5893,2.5863,2.584,2.5869,2.585,2.585,2.5858,2.5829,2.5893,2.5876,2.5839,2.5784,2.5871,2.59,2.5912,2.5744,2.5742,2.5741,2.574,0,0,2.6015,2.5979,2.599,2.5983,2.5961,2.5971,2.5997,2.5996,2.6004,2.5997,2.6017,2.6031,2.5996,2.5994,2.5964,2.5987,2.6065,2.5947,2.5945,2.5969,2.6135,2.6162,2.6177,2.604,2.6042,2.6044,2.6136,0,2.6107,2.6146,2.6108,2.6156,2.6169,2.6113,2.6135,2.6124,2.6104,2.6113,2.6091,2.6101,2.6055,2.6053,2.6074,2.6051,2.6098,2.6044,2.6058,2.6059,2.6062,2.6193,2.6222,2.6309,2.6147,2.6149,2.6151,0,2.6218,2.6216,2.6265,2.624,2.6244,2.6264,2.6261,2.6271,2.6258,2.6241,2.624,2.6203,2.6227,2.6175,2.6207,2.6172,2.6176,2.6166,2.6168,2.6167,2.6109,2.6194,2.6336,2.6349,2.6168,2.6167,2.6166,0,2.6322,2.6332,2.6362,2.6358,2.633,2.6346,2.6335,2.632,2.6322,2.632,2.6322,2.6323,2.6324,2.6326,2.6291,2.6257,2.6328,2.6273,2.6315,2.6317,2.6332,2.6331,2.6476,2.6336,2.6336,2.6336,2.6336,0,2.6427,2.6459,2.6408,2.6427,2.6461,2.6418,2.6454,2.6437,2.6424,2.6439,2.6392,2.6408,2.6361,2.6372,2.6345,2.6376,2.6377,2.6365,2.6357,2.6368,2.637,2.6369,2.6362,2.6339,2.6339,2.6338,2.6337,0,2.6548,2.6515,2.6545,2.6516,2.651,2.6537,2.6512,2.6529,2.6506,2.6526,2.6529,2.6493,2.6504,2.647,2.6475,2.6457,2.6502,2.6485,2.6506,2.6501,2.6544,2.6541,2.6693,2.671,2.6561,2.6563,2.6564,0,2.6617,2.664,2.6614,2.6621,2.6613,2.6624,2.6626,2.6586,2.659,2.6578,2.6597,2.6603,2.6606,2.6626,2.6601,2.6605,2.6587,2.664,2.6587,2.6598,2.6587,2.6586,2.6588,2.6651,2.6653,2.6654,2.6655,0,2.6742,2.6725,2.673,2.673,2.6735,2.6733,2.6728,2.6737,2.6693,2.6701,2.6711,2.6713,2.6719,2.6726,2.6725,2.6714,2.6678,2.6672,2.6682,2.6693,2.6704,2.6698,2.6535,2.6669,2.6667,2.6666,2.6666,2.6665,2.6838,2.6856,2.6841,2.6849,2.6841,2.6838,2.6852,2.6832,2.6839,2.684,2.6816,2.6832,2.6819,2.6814,2.6808,2.682,2.6795,2.6809,2.6813,2.6817,2.6824,2.6704,2.6819,2.6819,2.6819,2.6818,2.6818,0,2.696,2.6948,2.6956,2.695,2.6957,2.6923,2.6916,2.6924,2.6937,2.6929,2.6933,2.6946,2.6953,2.693,2.6934,2.6948,2.6931,2.695,2.6948,2.6946,2.6846,2.6837,2.6963,2.6963,2.6963,2.6963,2.6963,2.6963,2.7024,2.7053,2.7035,2.706,2.7048,2.7062,2.7061,2.7059,2.7052,2.7068,2.7073,2.7058,2.7044,2.7047,2.7053,2.7046,2.7049,2.7074,2.7061,2.6968,2.6953,2.694,2.6931,2.7075,2.7075,2.716,2.7161,2.7162]}]]